GW1476 Weather Reports


time (UTC)temp
F
wind
direction
speed
knots
gust
knots
rain 1hr
in
rain 24hr
in
rain mn
in
humidity
%
barometer
mb
20260905160649 80 180 2.6 5.2 0.00 0.00 0.22 94 1016.2
20260905155332 80 203 2.6 2.6 0.00 0.00 0.22 95 1016.5
20260905154847 80 158 0.0 2.6 0.00 0.00 0.22 93 1016.9
20260905154417 81 338 2.6 2.6 0.00 0.00 0.22 92 1016.9
20260905153527 79 23 2.6 2.6 0.00 0.00 0.22 95 1016.9
20260905153111 79 180 3.5 3.5 0.00 0.00 0.22 98 1016.9
20260905152653 78 23 3.5 4.3 0.00 0.00 0.22 98 1016.9
20260905152236 78 203 2.6 3.5 0.00 0.00 0.22 99 1016.9
20260905151347 78 270 1.7 3.5 0.00 0.00 0.22 99 1016.9
20260905150931 78 225 1.7 1.7 0.00 0.00 0.22 99 1016.5
20260905150513 78 113 0.0 0.0 0.00 0.00 0.22 98 1016.5
20260905150058 78 270 0.9 2.6 0.00 0.00 0.22 99 1016.2
20260905145641 78 225 2.6 2.6 0.00 0.00 0.22 99 1016.5
20260905145225 78 225 2.6 2.6 0.00 0.00 0.22 99 1016.9
20260905144808 79 203 0.9 1.7 0.00 0.00 0.22 97 1016.9
20260905144352 79 180 1.7 3.5 0.00 0.00 0.22 97 1016.9
20260905143935 80 203 0.0 2.6 0.00 0.00 0.22 96 1017.2
20260905143504 80 113 0.9 3.5 0.00 0.00 0.22 96 1017.2
20260905143032 78 293 0.0 0.0 0.00 0.00 0.22 99 1017.2
20260905142615 77 180 0.0 2.6 0.00 0.00 0.22 99 1017.2
20260905142159 77 180 1.7 2.6 0.00 0.00 0.22 99 1017.6
20260905141740 77 225 0.0 1.7 0.00 0.00 0.22 99 1017.9
20260905141325 76 203 0.9 0.9 0.00 0.00 0.22 99 1017.6
20260905140838 74 203 0.9 2.6 0.00 0.00 0.22 99 1017.9
20260905140422 74 180 0.0 0.0 0.00 0.00 0.22 99 1017.9
20260905140005 73 203 0.0 0.0 0.00 0.00 0.22 99 1018.2
20260905135547 73 158 0.0 0.0 0.00 0.00 0.22 99 1018.2
20260905135130 73 248 1.7 1.7 0.00 0.00 0.21 99 1018.2
20260905134658 73 293 0.0 0.0 0.00 0.00 0.18 99 1018.6
20260905134242 73 203 0.0 0.9 0.00 0.00 0.17 99 1018.2
20260905132919 73 338 0.0 0.0 0.00 0.00 0.17 99 1018.2
20260905132448 73 45 0.0 0.0 0.00 0.00 0.17 99 1018.2
20260905132017 73 338 0.0 0.0 0.00 0.00 0.17 99 1017.9
20260905131546 73 293 0.0 0.0 0.00 0.00 0.17 99 1017.9
20260905131129 73 113 0.0 1.7 0.00 0.00 0.17 99 1017.9
20260905130713 73 45 0.9 4.3 0.00 0.00 0.17 99 1017.6
20260905125822 73 90 5.2 5.2 0.00 0.00 0.16 99 1018.2
20260905125404 73 45 8.7 8.7 0.00 0.00 0.02 99 1017.9
20260905124933 73 0 2.6 2.6 0.00 0.00 0.00 99 1017.9
20260905124502 73 248 0.0 0.0 0.00 0.00 0.00 99 1017.6
20260905124046 72 225 0.0 0.0 0.00 0.00 0.00 99 1017.2
20260905123616 72 225 0.0 0.9 0.00 0.00 0.00 99 1017.2
20260905123200 72 23 1.7 2.6 0.00 0.00 0.00 99 1016.9
20260905122743 72 293 0.0 6.1 0.00 0.00 0.00 99 1017.2
20260905121838 72 45 7.0 7.0 0.00 0.00 0.00 99 1016.2
20260905120507 72 0 0.0 0.0 0.00 0.00 0.00 99 1016.2
20260905120050 72 225 0.0 0.0 0.00 0.00 0.00 99 1015.9
20260905115604 72 225 0.0 0.0 0.00 0.00 0.00 99 1015.9
20260905115132 71 248 0.0 0.0 0.00 0.00 0.00 99 1015.9
20260905114715 71 23 0.0 0.0 0.00 0.00 0.00 99 1015.9
20260905114245 71 23 0.0 0.0 0.00 0.00 0.00 99 1015.9
20260905113830 71 23 0.0 0.0 0.00 0.00 0.00 99 1015.9
20260905112459 71 315 0.0 0.0 0.00 0.00 0.00 99 1015.9
20260905111614 71 248 0.0 0.0 0.00 0.00 0.00 99 1015.9
20260905111157 71 293 0.0 0.0 0.00 0.00 0.00 99 1015.5
20260905110312 71 338 0.0 0.0 0.00 0.00 0.00 99 1015.9
20260905105857 71 293 0.0 0.0 0.00 0.00 0.00 99 1015.5
20260905104939 71 225 0.0 0.0 0.00 0.00 0.00 99 1015.9
20260905104523 71 225 0.0 0.0 0.00 0.00 0.00 99 1015.9
20260905104107 71 225 0.0 0.0 0.00 0.00 0.00 99 1015.5
20260905103651 71 248 0.0 0.0 0.00 0.00 0.00 99 1015.9
20260905103220 71 270 0.0 0.0 0.00 0.00 0.00 99 1015.5
20260905102335 71 315 0.0 0.0 0.00 0.00 0.00 99 1015.9
20260905101450 71 0 0.0 0.0 0.00 0.00 0.00 99 1015.5
20260905100047 71 338 0.0 0.0 0.00 0.00 0.00 99 1015.5
20260905095630 71 315 0.0 0.0 0.00 0.00 0.00 99 1015.5
20260905095211 71 270 0.0 0.0 0.00 0.00 0.00 99 1015.5
20260905094739 71 203 0.0 0.0 0.00 0.00 0.00 99 1015.5
20260905094309 71 248 0.0 0.0 0.00 0.00 0.00 99 1015.5
20260905093852 71 270 0.0 0.0 0.00 0.00 0.00 99 1015.5
20260905093437 71 270 0.0 0.0 0.00 0.00 0.00 99 1015.5
20260905093021 71 248 0.0 0.0 0.00 0.00 0.00 99 1015.9
20260905092604 71 270 0.0 0.0 0.00 0.00 0.00 99 1015.9
20260905092133 71 338 0.0 0.0 0.00 0.00 0.00 99 1015.5
20260905091703 71 158 0.0 0.0 0.00 0.00 0.00 99 1015.5
20260905091248 71 225 0.0 0.0 0.00 0.00 0.00 99 1015.5
20260905090834 71 203 0.0 0.0 0.00 0.00 0.00 99 1015.5
20260905085950 71 225 0.0 0.0 0.00 0.00 0.00 99 1015.5
20260905085537 72 225 0.0 0.0 0.00 0.00 0.00 99 1015.5
20260905084653 72 0 0.0 0.0 0.00 0.00 0.00 99 1015.5
20260905084237 72 23 0.0 0.0 0.00 0.00 0.00 99 1015.5
20260905083821 72 23 0.0 0.0 0.00 0.00 0.00 99 1015.5
20260905083351 72 270 0.0 0.0 0.00 0.00 0.00 99 1015.5
20260905082936 72 0 0.0 0.0 0.00 0.00 0.00 99 1015.5
20260905082519 72 293 0.0 0.0 0.00 0.00 0.00 99 1015.5
20260905082103 72 270 0.0 0.0 0.00 0.00 0.00 99 1015.5
20260905081647 72 338 0.0 0.0 0.00 0.00 0.00 99 1015.5
20260905081231 72 248 0.0 0.0 0.00 0.00 0.00 99 1015.5
20260905080810 72 270 0.0 0.0 0.00 0.00 0.00 99 1015.5
20260905080340 72 225 0.0 0.0 0.00 0.00 0.00 99 1015.5
20260905075923 72 270 0.0 0.0 0.00 0.00 0.00 99 1015.5
20260905075506 72 23 0.0 0.0 0.00 0.00 0.00 99 1015.5
20260905075034 72 225 0.0 0.0 0.00 0.00 0.00 99 1015.9
20260905074618 72 225 0.0 0.0 0.00 0.00 0.00 99 1015.9
20260905074146 72 203 0.0 0.0 0.00 0.00 0.00 99 1015.9
20260905073726 72 270 0.0 0.0 0.00 0.00 0.00 99 1015.9
20260905072825 72 338 0.0 0.0 0.00 0.00 0.00 99 1015.9
20260905072409 72 270 0.0 0.0 0.00 0.00 0.00 99 1016.2
20260905071939 72 270 0.0 0.0 0.00 0.00 0.00 99 1016.2
20260905071508 72 225 0.0 0.0 0.00 0.00 0.00 99 1016.2
20260905070623 72 225 0.0 0.0 0.00 0.00 0.00 99 1016.2
20260905070207 72 68 0.0 0.0 0.00 0.00 0.00 99 1016.2
20260905065752 72 270 0.0 0.0 0.00 0.00 0.00 99 1016.2
20260905065336 72 225 0.0 0.0 0.00 0.00 0.00 99 1016.5
20260905064921 72 225 0.0 0.0 0.00 0.00 0.00 99 1016.5
20260905064505 72 270 0.0 0.0 0.00 0.00 0.00 99 1016.5
20260905064050 72 270 0.0 0.0 0.00 0.00 0.00 99 1016.9
20260905063634 72 270 0.0 0.0 0.00 0.00 0.00 99 1016.9
20260905063219 72 23 0.0 0.0 0.00 0.00 0.00 99 1016.9
20260905062305 72 270 0.0 0.0 0.00 0.00 0.00 99 1016.9
20260905061830 72 248 0.0 0.0 0.00 0.00 0.00 99 1017.2
20260905061412 72 180 0.0 0.0 0.00 0.00 0.00 99 1017.2
20260905060955 72 270 0.0 0.0 0.00 0.00 0.00 99 1017.2
20260905060538 72 270 0.0 0.0 0.00 0.00 0.00 99 1017.2
20260905060122 72 270 0.0 0.0 0.00 0.00 0.00 99 1017.2
20260905055705 72 225 0.0 0.0 0.00 0.00 0.00 99 1017.2
20260905055249 73 225 0.0 0.0 0.00 0.00 0.00 99 1017.6
20260905054833 73 203 0.0 0.0 0.00 0.00 0.00 99 1017.6
20260905054419 73 225 0.0 0.0 0.00 0.00 0.00 99 1017.6
20260905054001 73 270 0.0 0.0 0.00 0.00 0.00 99 1017.6
20260905053115 73 270 0.0 0.0 0.00 0.00 0.00 99 1017.6
20260905052644 73 248 0.0 0.0 0.00 0.00 0.00 99 1017.6
20260905052229 73 180 0.0 0.0 0.00 0.00 0.00 99 1017.6
20260905051812 73 248 0.0 0.0 0.00 0.00 0.00 99 1017.9
20260905050912 73 225 0.0 0.0 0.00 0.00 0.00 99 1017.9
20260905050426 73 203 0.0 0.0 0.00 0.00 0.00 99 1017.9
20260905050010 73 180 0.0 0.0 0.00 0.00 0.00 99 1017.9
20260905045554 73 225 0.0 0.0 0.00 0.00 0.00 99 1017.9
20260905044237 73 225 0.0 0.0 0.00 0.00 0.00 99 1017.9
20260905043823 73 225 0.0 0.0 0.00 0.00 0.00 99 1017.9
20260905043405 73 225 0.0 0.0 0.00 0.00 0.00 99 1017.9
20260905042951 73 225 0.0 0.0 0.00 0.00 0.00 99 1017.9
20260905042048 73 225 0.0 0.0 0.00 0.00 0.00 99 1017.9
20260905041617 73 203 0.0 0.0 0.00 0.00 0.00 99 1017.6
20260905041200 73 225 0.0 0.0 0.00 0.00 0.00 99 1017.9
20260905040743 73 203 0.0 0.0 0.00 0.00 0.00 99 1017.9
20260905040311 73 203 0.0 0.0 0.00 0.00 0.00 99 1017.9
20260905035839 73 203 0.0 0.0 0.00 0.00 0.01 99 1017.9
20260905035424 73 225 0.0 0.0 0.00 0.00 0.01 99 1017.9
20260905035008 73 225 0.0 0.0 0.00 0.00 0.01 99 1017.9
20260905034553 73 203 0.0 0.0 0.00 0.00 0.01 99 1017.9
20260905034136 74 203 0.0 0.0 0.00 0.00 0.01 99 1017.9
20260905033721 74 203 0.0 0.0 0.00 0.00 0.01 99 1017.6
20260905033300 74 203 0.0 0.0 0.00 0.00 0.01 99 1017.6
20260905032842 74 203 0.0 0.0 0.00 0.00 0.01 99 1017.6
20260905032411 74 225 0.0 0.0 0.00 0.00 0.01 99 1017.6
20260905031520 74 225 0.0 0.0 0.00 0.00 0.01 99 1017.6
20260905031049 74 225 0.0 0.0 0.00 0.00 0.01 99 1017.2
20260905030618 74 225 0.0 0.0 0.00 0.00 0.01 99 1017.2
20260905030147 74 225 0.0 0.0 0.00 0.00 0.01 99 1017.2
20260905025729 74 225 0.0 0.0 0.00 0.00 0.01 99 1017.6
20260905025314 74 225 0.0 0.0 0.00 0.00 0.01 99 1017.2
20260905024859 74 293 0.0 0.0 0.00 0.00 0.01 99 1017.2
20260905024443 74 270 0.0 0.0 0.00 0.00 0.01 99 1017.2
20260905023539 75 180 0.0 0.0 0.00 0.00 0.01 99 1017.2
20260905023051 75 248 0.0 0.0 0.00 0.00 0.01 99 1017.2
20260905022621 75 248 0.0 0.0 0.00 0.00 0.01 99 1017.6
20260905022204 75 203 0.0 0.0 0.00 0.00 0.01 99 1017.6
20260905021730 75 180 0.0 0.0 0.00 0.00 0.01 99 1017.6
20260905021312 75 203 0.0 0.0 0.00 0.00 0.01 99 1017.6
20260905020857 75 270 0.0 0.0 0.00 0.00 0.01 99 1017.6
20260905020442 75 293 0.0 0.0 0.00 0.00 0.01 99 1017.6
20260905020026 75 225 0.0 0.0 0.00 0.00 0.01 99 1017.2
20260905015610 76 203 0.0 0.0 0.00 0.00 0.01 99 1017.6
20260905015140 76 225 0.0 0.0 0.00 0.00 0.01 99 1017.6
20260905014252 76 203 0.0 0.0 0.00 0.00 0.01 99 1017.2
20260905013836 76 203 0.0 0.0 0.00 0.00 0.01 99 1017.2
20260905013420 76 203 0.0 0.0 0.00 0.00 0.01 99 1017.2
20260905012532 77 225 0.0 0.0 0.00 0.00 0.01 99 1017.2
20260905012116 77 225 0.0 0.0 0.00 0.00 0.01 99 1017.2
20260905011657 77 203 0.0 1.7 0.00 0.00 0.01 99 1016.9
20260905010753 77 203 1.7 1.7 0.00 0.00 0.01 99 1016.5
20260905010336 77 225 0.9 1.7 0.00 0.00 0.01 99 1016.5
20260905005919 78 203 0.0 0.0 0.00 0.00 0.01 99 1016.5
20260905005503 78 203 0.0 0.0 0.00 0.00 0.01 99 1016.2
20260905004616 78 225 0.0 0.0 0.00 0.00 0.01 99 1015.9
20260905004159 78 203 0.0 0.0 0.00 0.00 0.01 99 1015.5
20260905003742 78 225 0.0 0.0 0.00 0.00 0.01 99 1015.5
20260905003312 78 270 0.0 0.0 0.00 0.00 0.01 99 1015.2
20260905002856 79 270 0.9 1.7 0.00 0.00 0.01 99 1015.2
20260905002439 79 0 1.7 1.7 0.00 0.00 0.01 99 1015.2
20260905002024 79 0 1.7 2.6 0.00 0.00 0.01 99 1015.2
20260905001609 79 225 0.0 0.0 0.00 0.00 0.01 99 1014.9
20260905001152 79 203 0.0 0.0 0.00 0.00 0.01 99 1015.2
20260905000735 80 270 0.0 0.0 0.00 0.00 0.01 98 1015.2
20260905000318 80 248 0.0 1.7 0.00 0.00 0.01 98 1015.5
20260904235856 80 180 0.9 1.7 0.00 0.00 0.01 97 1015.9
20260904235425 80 270 1.7 1.7 0.00 0.00 0.01 96 1015.9
20260904235008 81 225 0.0 0.0 0.00 0.00 0.01 96 1016.2
20260904234123 81 203 2.6 2.6 0.00 0.00 0.01 94 1016.5
20260904232320 84 203 0.0 1.7 0.00 0.00 0.01 86 1016.9
20260904231902 85 225 0.0 1.7 0.00 0.00 0.01 85 1016.9
20260904231447 88 203 1.7 1.7 0.00 0.00 0.01 81 1016.9
20260904231015 87 270 0.0 0.0 0.00 0.00 0.01 81 1016.9
20260904230544 89 225 0.0 0.0 0.00 0.00 0.01 79 1016.9
20260904230113 87 203 0.9 2.6 0.00 0.00 0.01 83 1016.9
20260904225641 89 203 2.6 2.6 0.00 0.00 0.01 77 1017.2
20260904225224 90 203 1.7 1.7 0.00 0.00 0.01 75 1017.2
20260904224321 91 0 1.7 1.7 0.00 0.00 0.01 74 1017.2
20260904223848 92 23 1.7 3.5 0.00 0.00 0.01 72 1017.2
20260904223402 91 0 2.6 3.5 0.00 0.00 0.01 74 1017.2
20260904222945 90 158 0.0 0.0 0.00 0.00 0.01 75 1017.2
20260904222528 89 180 0.9 1.7 0.00 0.00 0.01 78 1017.6
20260904222111 88 203 1.7 1.7 0.00 0.00 0.01 80 1017.6
20260904221639 87 180 2.6 2.6 0.00 0.00 0.01 82 1017.6
20260904220734 88 158 1.7 1.7 0.00 0.00 0.01 81 1017.9
20260904220312 88 180 0.0 1.7 0.00 0.00 0.01 80 1017.9
20260904215854 88 225 1.7 2.6 0.00 0.00 0.01 80 1017.9
20260904215438 88 203 1.7 1.7 0.00 0.00 0.01 80 1017.9
20260904215004 89 225 0.0 0.0 0.00 0.00 0.01 79 1017.9
20260904214548 89 45 0.0 0.9 0.00 0.00 0.01 80 1017.9
20260904214128 89 315 3.5 4.3 0.00 0.00 0.01 80 1017.9
20260904213655 89 68 2.6 3.5 0.00 0.00 0.01 81 1017.9
20260904213238 88 0 1.7 1.7 0.00 0.00 0.01 86 1017.2
20260904212804 86 248 0.9 2.6 0.00 0.00 0.01 90 1017.2
20260904212348 87 180 2.6 2.6 0.00 0.00 0.01 88 1017.2
20260904211027 90 225 0.0 1.7 0.00 0.00 0.01 78 1017.2
20260904210539 89 270 0.0 0.0 0.00 0.00 0.01 79 1017.2
20260904210123 90 315 1.7 1.7 0.00 0.00 0.01 78 1017.2
20260904205707 88 270 0.0 0.9 0.00 0.00 0.01 81 1016.9
20260904205236 89 23 0.0 0.0 0.00 0.00 0.01 80 1016.9
20260904204803 90 248 1.7 1.7 0.00 0.00 0.01 78 1016.9
20260904204345 89 23 0.0 0.9 0.00 0.00 0.01 80 1016.9
20260904203442 89 0 2.6 2.6 0.00 0.00 0.01 80 1016.9
20260904203010 88 180 0.9 1.7 0.00 0.00 0.01 82 1016.9
20260904202554 87 180 1.7 2.6 0.00 0.00 0.01 82 1017.2
20260904202138 87 270 1.7 1.7 0.00 0.00 0.01 82 1017.6
20260904201721 89 203 1.7 1.7 0.00 0.00 0.01 79 1017.6
20260904201304 89 225 0.0 0.0 0.00 0.00 0.01 76 1017.6
20260904200358 90 180 0.9 1.7 0.00 0.00 0.01 74 1017.9
20260904195925 90 0 0.0 0.0 0.00 0.00 0.01 71 1017.9
20260904194128 91 23 2.6 2.6 0.00 0.00 0.01 70 1017.6
20260904192751 90 158 0.0 1.7 0.00 0.00 0.01 71 1017.6
20260904191905 90 0 4.3 5.2 0.00 0.00 0.01 72 1017.9
20260904191434 89 45 2.6 2.6 0.00 0.00 0.01 72 1017.9
20260904191000 89 23 1.7 3.5 0.00 0.00 0.01 74 1017.9
20260904190546 90 23 2.6 5.2 0.00 0.00 0.01 72 1017.9
20260904190116 91 0 2.6 2.6 0.00 0.00 0.01 72 1017.9
20260904185645 91 45 1.7 6.1 0.00 0.00 0.01 71 1017.9
20260904185227 92 23 1.7 6.1 0.00 0.00 0.01 70 1017.9
20260904184739 94 45 10.4 10.4 0.00 0.00 0.01 67 1017.6
20260904183850 94 338 1.7 3.5 0.00 0.00 0.01 66 1017.6
20260904183433 94 0 1.7 2.6 0.00 0.00 0.01 64 1017.6
20260904183018 95 0 2.6 5.2 0.00 0.00 0.01 62 1017.6
20260904182600 96 23 5.2 7.0 0.00 0.00 0.01 61 1017.9
20260904182146 95 45 4.3 5.2 0.00 0.00 0.01 61 1017.6
20260904181256 97 23 5.2 6.1 0.00 0.00 0.01 60 1017.9
20260904180839 98 45 3.5 5.2 0.00 0.00 0.01 58 1017.6
20260904175904 98 338 1.7 5.2 0.00 0.00 0.01 58 1017.6
20260904175448 98 45 5.2 5.2 0.00 0.00 0.01 59 1017.6
20260904175015 98 23 2.6 3.5 0.00 0.00 0.01 57 1017.6
20260904174542 100 23 2.6 4.3 0.00 0.00 0.01 56 1017.9
20260904174109 99 45 3.5 4.3 0.00 0.00 0.01 57 1017.9
20260904173622 99 180 0.9 3.5 0.00 0.00 0.01 57 1018.2
20260904172713 100 0 4.3 7.0 0.00 0.00 0.01 58 1018.2
20260904172256 99 270 0.0 3.5 0.00 0.00 0.01 59 1018.2
20260904171839 99 45 4.3 7.0 0.00 0.00 0.01 58 1018.2
20260904171422 100 225 1.7 4.3 0.00 0.00 0.01 60 1018.2
20260904170502 99 23 3.5 4.3 0.00 0.00 0.01 60 1018.2
20260904170045 98 23 2.6 3.5 0.00 0.00 0.01 61 1018.6
20260904165628 99 23 1.7 4.3 0.00 0.00 0.01 61 1018.6
20260904165158 98 0 1.7 3.5 0.00 0.00 0.01 61 1018.2
20260904164740 98 248 0.9 3.5 0.00 0.00 0.01 64 1018.6
20260904164323 98 23 0.9 0.9 0.00 0.00 0.01 63 1018.6
20260904163851 99 68 2.6 2.6 0.00 0.00 0.01 63 1018.6
20260904163436 97 225 1.7 1.7 0.00 0.00 0.01 66 1018.6
20260904163017 96 270 0.9 2.6 0.00 0.00 0.01 68 1018.9
20260904162129 96 270 0.9 4.3 0.00 0.00 0.01 68 1018.9
20260904161713 98 203 3.5 3.5 0.00 0.00 0.01 67 1018.9